User: anonymous   Login
Location: Young's Pond
(41.2695°N, 72.7766°W)
Time: 04:15:29
(UTC-04:00)
Language:

Spot 4 - Orbit

View from above orbital plane
View from above orbital plane
View from above satellite
View from above satellite

Ground track
Ground track

The orbit data is extracted from the following two-line orbital elements,

1 25260U 98017A   15115.19399674  .00000640  00000-0  16534-3 0  9993
2 25260 098.4180 186.2243 0013676 155.7994 204.3848 14.53245687887979
Epoch (UTC): 25 April 2015 04:39:21
Eccentricity: 0.0013676
inclination: 98.4180°
perigee height: 705 km
apogee height: 725 km
right ascension of ascending node: 186.2243°
argument of perigee: 155.7994°
revolutions per day: 14.53245687
mean anomaly at epoch: 204.3848°
orbit number at epoch: 88797

The dashed part of the orbit path shows where the satellite is in the earth's shadow,  

DLR